When you browse on this site, cookies collect data to enhance your experience and personalize the content and advertising you see.
Visit our Privacy Policy to learn more. By continuing to use the site, you agree to this use of cookies and data.

Hourly Weather Townsville

Today, 8 July, Wednesday

Time Temperature Precipitation Wind Pressure Humidity
00:00 +17°C° 0 mm 4 mps 758 mmHg 85%
01:00 +15°C° 0 mm 4 mps 758 mmHg 88%
02:00 +15°C° 0 mm 4 mps 757 mmHg 89%
03:00 +15°C° 0 mm 4 mps 757 mmHg 91%
04:00 +16°C° 0 mm 3 mps 757 mmHg 92%
05:00 +16°C° 0 mm 3 mps 757 mmHg 92%
06:00 +16°C° 0 mm 3 mps 757 mmHg 93%
07:00 +16°C° 0 mm 3 mps 757 mmHg 93%
08:00 +18°C° 0 mm 3 mps 757 mmHg 84%
09:00 +21°C° 0 mm 4 mps 757 mmHg 76%
10:00 +23°C° 0 mm 4 mps 758 mmHg 68%
11:00 +23°C° 0.1 mm 5 mps 757 mmHg 67%
12:00 +25°C° 0.1 mm 5 mps 757 mmHg 66%
13:00 +24°C° 0.1 mm 6 mps 756 mmHg 65%
14:00 +24°C° 0.2 mm 6 mps 756 mmHg 66%
15:00 +24°C° 0.2 mm 6 mps 756 mmHg 68%
16:00 +24°C° 0.2 mm 6 mps 755 mmHg 69%
17:00 +23°C° 0.2 mm 6 mps 756 mmHg 75%
18:00 +21°C° 0.2 mm 6 mps 756 mmHg 80%
19:00 +20°C° 0.2 mm 6 mps 757 mmHg 86%
20:00 +20°C° 0 mm 5 mps 757 mmHg 88%
21:00 +19°C° 0 mm 5 mps 757 mmHg 89%
22:00 +17°C° 0 mm 5 mps 757 mmHg 90%
23:00 +19°C° 0.1 mm 4 mps 757 mmHg 89%

Tomorrow, 9 July, Thursday

Time Temperature Precipitation Wind Pressure Humidity
00:00 +19°C° 0.1 mm 4 mps 757 mmHg 89%
01:00 +19°C° 0.1 mm 4 mps 757 mmHg 88%
02:00 +19°C° 0.1 mm 4 mps 757 mmHg 88%
03:00 +19°C° 0.1 mm 4 mps 756 mmHg 88%
04:00 +19°C° 0.1 mm 3 mps 756 mmHg 88%
05:00 +19°C° 0.1 mm 4 mps 756 mmHg 90%
06:00 +18°C° 0.1 mm 4 mps 757 mmHg 91%
07:00 +18°C° 0.1 mm 4 mps 757 mmHg 93%
08:00 +19°C° 0.3 mm 4 mps 757 mmHg 91%
09:00 +20°C° 0.3 mm 5 mps 757 mmHg 89%
10:00 +21°C° 0.3 mm 6 mps 757 mmHg 87%
11:00 +21°C° 0.4 mm 6 mps 757 mmHg 84%
12:00 +22°C° 0.4 mm 6 mps 757 mmHg 82%
13:00 +23°C° 0.4 mm 6 mps 756 mmHg 79%
14:00 +23°C° 0.3 mm 6 mps 756 mmHg 77%
15:00 +23°C° 0.3 mm 6 mps 756 mmHg 75%
16:00 +24°C° 0.3 mm 6 mps 756 mmHg 72%
17:00 +23°C° 0.1 mm 6 mps 756 mmHg 76%
18:00 +22°C° 0.1 mm 6 mps 757 mmHg 79%
19:00 +21°C° 0.1 mm 5 mps 757 mmHg 83%
20:00 +20°C° 0 mm 5 mps 758 mmHg 85%
21:00 +19°C° 0 mm 5 mps 758 mmHg 87%
22:00 +19°C° 0 mm 5 mps 758 mmHg 89%
23:00 +17°C° 0 mm 5 mps 758 mmHg 90%

Day after tomorrow, 10 July, Friday

Time Temperature Precipitation Wind Pressure Humidity
00:00 +18°C° 0 mm 4 mps 758 mmHg 91%
01:00 +18°C° 0 mm 4 mps 758 mmHg 92%
02:00 +18°C° 0 mm 4 mps 757 mmHg 91%
03:00 +18°C° 0 mm 4 mps 757 mmHg 91%
04:00 +17°C° 0 mm 3 mps 757 mmHg 91%
05:00 +17°C° 0 mm 3 mps 757 mmHg 92%
06:00 +17°C° 0 mm 3 mps 757 mmHg 92%
07:00 +17°C° 0 mm 3 mps 758 mmHg 93%
08:00 +19°C° 0 mm 3 mps 758 mmHg 86%
09:00 +21°C° 0 mm 3 mps 758 mmHg 79%
10:00 +24°C° 0 mm 3 mps 758 mmHg 71%
11:00 +23°C° 0 mm 4 mps 758 mmHg 68%
12:00 +25°C° 0 mm 4 mps 757 mmHg 65%
13:00 +26°C° 0 mm 4 mps 756 mmHg 62%
14:00 +26°C° 0 mm 4 mps 756 mmHg 62%
15:00 +26°C° 0 mm 5 mps 756 mmHg 62%
16:00 +25°C° 0 mm 5 mps 755 mmHg 62%
17:00 +23°C° 0 mm 4 mps 756 mmHg 69%
18:00 +21°C° 0 mm 3 mps 756 mmHg 77%
19:00 +20°C° 0 mm 3 mps 756 mmHg 85%
20:00 +19°C° 0 mm 3 mps 757 mmHg 86%
21:00 +19°C° 0 mm 3 mps 757 mmHg 87%
22:00 +19°C° 0 mm 2 mps 757 mmHg 88%
23:00 +19°C° 0 mm 2 mps 757 mmHg 89%

11 July, Saturday

Time Temperature Precipitation Wind Pressure Humidity
00:00 +18°C° 0 mm 3 mps 757 mmHg 90%
01:00 +18°C° 0 mm 3 mps 756 mmHg 91%
02:00 +18°C° 0 mm 3 mps 756 mmHg 92%
03:00 +18°C° 0 mm 3 mps 756 mmHg 93%
04:00 +18°C° 0 mm 3 mps 756 mmHg 94%
05:00 +18°C° 0 mm 3 mps 756 mmHg 94%
06:00 +18°C° 0 mm 2 mps 756 mmHg 95%
07:00 +18°C° 0 mm 2 mps 756 mmHg 95%
08:00 +20°C° 0 mm 2 mps 756 mmHg 87%
09:00 +23°C° 0 mm 2 mps 756 mmHg 80%
10:00 +25°C° 0 mm 2 mps 756 mmHg 72%
11:00 +25°C° 0.1 mm 3 mps 756 mmHg 70%
12:00 +26°C° 0.1 mm 4 mps 755 mmHg 69%
13:00 +26°C° 0.1 mm 4 mps 754 mmHg 67%
14:00 +26°C° 0.2 mm 5 mps 754 mmHg 71%
15:00 +25°C° 0.2 mm 5 mps 754 mmHg 74%
16:00 +25°C° 0.2 mm 5 mps 754 mmHg 78%
17:00 +23°C° 0.2 mm 5 mps 754 mmHg 81%
18:00 +22°C° 0.2 mm 5 mps 754 mmHg 84%
19:00 +22°C° 0.2 mm 5 mps 755 mmHg 87%
20:00 +22°C° 0.1 mm 5 mps 755 mmHg 88%
21:00 +21°C° 0.1 mm 5 mps 755 mmHg 88%
22:00 +21°C° 0.1 mm 5 mps 756 mmHg 88%
23:00 +21°C° 0.1 mm 5 mps 755 mmHg 88%

12 July, Sunday

Time Temperature Precipitation Wind Pressure Humidity
00:00 +21°C° 0.1 mm 4 mps 755 mmHg 89%
01:00 +21°C° 0.1 mm 4 mps 755 mmHg 89%
02:00 +21°C° 0.1 mm 4 mps 754 mmHg 89%
03:00 +21°C° 0.1 mm 4 mps 754 mmHg 89%
04:00 +21°C° 0.1 mm 4 mps 754 mmHg 89%
05:00 +21°C° 0 mm 4 mps 754 mmHg 89%
06:00 +20°C° 0 mm 4 mps 754 mmHg 90%
07:00 +20°C° 0 mm 4 mps 755 mmHg 90%
08:00 +21°C° 0 mm 4 mps 755 mmHg 86%
09:00 +22°C° 0 mm 4 mps 755 mmHg 81%
10:00 +23°C° 0 mm 5 mps 755 mmHg 77%
11:00 +25°C° 0 mm 5 mps 755 mmHg 75%
12:00 +25°C° 0 mm 5 mps 754 mmHg 73%
13:00 +25°C° 0 mm 4 mps 754 mmHg 71%
14:00 +25°C° 0 mm 4 mps 754 mmHg 74%
15:00 +23°C° 0 mm 4 mps 754 mmHg 77%
16:00 +24°C° 0 mm 3 mps 753 mmHg 79%
17:00 +22°C° 0.1 mm 3 mps 754 mmHg 83%
18:00 +21°C° 0.1 mm 3 mps 754 mmHg 86%
19:00 +21°C° 0.1 mm 2 mps 755 mmHg 90%
20:00 +21°C° 0 mm 2 mps 755 mmHg 91%
21:00 +21°C° 0 mm 2 mps 755 mmHg 91%
22:00 +20°C° 0 mm 2 mps 755 mmHg 92%
23:00 +20°C° 0.1 mm 2 mps 755 mmHg 92%

13 July, Monday

Time Temperature Precipitation Wind Pressure Humidity
00:00 +21°C° 0.1 mm 2 mps 755 mmHg 92%
01:00 +21°C° 0.1 mm 2 mps 755 mmHg 91%
02:00 +21°C° 0.1 mm 2 mps 755 mmHg 91%
03:00 +21°C° 0.1 mm 2 mps 755 mmHg 91%
04:00 +21°C° 0.1 mm 2 mps 755 mmHg 92%
05:00 +21°C° 0.1 mm 2 mps 755 mmHg 92%
06:00 +21°C° 0.1 mm 2 mps 756 mmHg 92%
07:00 +20°C° 0.1 mm 2 mps 756 mmHg 92%
08:00 +21°C° 0 mm 3 mps 757 mmHg 87%
09:00 +22°C° 0 mm 3 mps 757 mmHg 82%
10:00 +24°C° 0 mm 3 mps 757 mmHg 77%
11:00 +24°C° 0 mm 3 mps 757 mmHg 71%
12:00 +25°C° 0 mm 3 mps 756 mmHg 65%
13:00 +26°C° 0 mm 4 mps 756 mmHg 59%
14:00 +26°C° 0 mm 4 mps 755 mmHg 57%
15:00 +26°C° 0 mm 4 mps 755 mmHg 55%
16:00 +26°C° 0 mm 4 mps 755 mmHg 53%
17:00 +25°C° 0 mm 4 mps 755 mmHg 54%
18:00 +23°C° 0 mm 4 mps 756 mmHg 55%
19:00 +22°C° 0 mm 4 mps 756 mmHg 57%
20:00 +21°C° 0 mm 4 mps 757 mmHg 54%
21:00 +21°C° 0 mm 4 mps 757 mmHg 52%
22:00 +21°C° 0 mm 4 mps 758 mmHg 49%
23:00 +20°C° 0 mm 4 mps 757 mmHg 44%
Show more